Flag for Cabo Verde Weather past 2 weeks in Santa Maria, Cabo Verde

Now
66 °F

Passing clouds.


Feels Like: 66 °F
Forecast: 67 / 75 °F
Wind: 15 mph from Northeast

Location: Sal

Current Time: Jan 28, 2015 at 11:20:16 PM

Latest Report: Jan 28, 2015 at 11:00 PM


Visibility: 5 mi

Pressure: 30.07 "Hg

Humidity: 78%

Dew point: 59 °F

Location of Santa MariaLocation

Historic Weather in Santa Maria — Graph

°F

Santa Maria temperature yesterday

Maximum temperature yesterday: 73 °F (at 12:00 PM)
Minimum temperature yesterday: 68 °F (at 12:00 AM)
Average temperature yesterday: 70 °F

Past Weeks' High & Low Weather Summary

 TemperatureHumidityPressure
High75 °F (Jan 15, 2:00 PM)88% (Jan 17, 1:00 AM)30.15 "Hg (Jan 17, 1:00 AM)
Low64 °F (Jan 19, 1:00 AM)53% (Jan 14, 11:00 AM)29.95 "Hg (Jan 20, 3:00 PM)
Average69 °F70%30.05 "Hg
* Reported Jan 13 10:00 PM — Jan 28 10:00 PM, Santa Maria, Weather by CustomWeather, © 2014

Note: Actual official high and low records may vary slightly from our data, if they occured in-between our weather recording intervals... More about our weather records

Advertising

Santa Maria weather history for previous 24 hours

 ConditionsComfort  
Time TempWeatherWind HumidityBarometerVisibility
10:00 PM
Jan 28
68 °FPassing clouds.14 mph73%30.07 "Hg5 mi
9:00 PM68 °FPartly cloudy.13 mph73%30.07 "Hg5 mi
8:00 PM68 °FPassing clouds.16 mph73%30.04 "Hg6 mi
7:00 PM68 °FPassing clouds.15 mph73%30.04 "Hg6 mi
6:00 PM70 °FPassing clouds.20 mph69%30.01 "Hg6 mi
5:00 PM72 °FPassing clouds.22 mph65%30.01 "HgN/A
4:00 PM73 °FPartly sunny.20 mph61%30.01 "HgN/A
3:00 PM75 °FPartly sunny.20 mph57%30.01 "HgN/A
2:00 PM75 °FPartly sunny.20 mph57%30.04 "HgN/A
1:00 PM75 °FPartly sunny.20 mph57%30.07 "HgN/A
12:00 PM75 °FPartly sunny.20 mph57%30.07 "HgN/A
11:00 AM75 °FPartly sunny.20 mph54%30.07 "HgN/A
10:00 AM73 °FScattered clouds.17 mph57%30.09 "Hg5 mi
9:00 AM72 °FPartly sunny.15 mph61%30.07 "Hg4 mi
8:00 AM68 °FPartly sunny.13 mph64%30.07 "Hg4 mi
7:00 AM68 °FPartly sunny.16 mph64%30.04 "Hg3 mi
6:00 AM68 °FScattered clouds.21 mph64%30.01 "Hg3 mi
5:00 AM68 °FPartly cloudy.21 mph64%30.01 "Hg3 mi
4:00 AM66 °FPartly cloudy.21 mph64%30.04 "Hg3 mi
3:00 AM66 °FPartly cloudy.18 mph68%30.04 "Hg3 mi
2:00 AM66 °FPartly cloudy.15 mph73%30.07 "Hg3 mi
1:00 AM66 °FPartly cloudy.14 mph78%30.12 "Hg3 mi
12:00 AM66 °FPartly cloudy.17 mph78%30.09 "Hg2 mi
11:00 PM
Jan 27
68 °FPassing clouds.15 mph69%30.09 "Hg2 mi
Weather by CustomWeather, © 2014

See weather overviewHow to use our weather pages